{"data":{"norad_id":36122,"intl_designator":"2009-072B","name":"XIWANG-1 (HOPE-1)","alt_names":[],"object_type":"PAYLOAD","status":"ACTIVE","operator":null,"country":"PRC","launch_date":"2009-12-15","launch_site_code":"TAISC","launch_vehicle":null,"mission":null,"orbit_class":"UNKNOWN","rcs_meters":0.3075,"size_class":null,"mass_kg":null,"dimensions":null,"purposes":["comms"],"wikipedia_slug":null,"has_3d_model":false,"image_url":null,"decayed_at":null,"tle_current":{"epoch":"2026-05-25T03:21:48.910752Z","epoch_age_seconds":56334,"freshness":"FRESH","line1":"1 36122U 09072B   26145.14014943  .00000363  00000+0  10676-2 0  9999","line2":"2 36122 100.4015  99.3422 0006880 289.1607  70.8761 13.16440469789978","mean_motion":13.16440469,"eccentricity":0.000688,"inclination_deg":100.4015,"raan_deg":99.3422,"arg_perigee_deg":289.1607,"mean_anomaly_deg":70.8761,"bstar":0.0010676,"rev_number":78997,"period_min":109.38588063111,"perigee_km":1193.1340509043,"apogee_km":1203.5592924365,"semimajor_km":7576.4836716704,"source":"CELESTRAK","updated_at":"2026-05-25T13:38:23.284201Z"}}}